Voltar ao catálogo

STARLINK-11072

AtivoComunicaçõesVLEO
NORAD 58705·PAYLOAD·🇺🇸 United States

Lançado Jan 3, 2024 de Vandenberg Space Force Base

Loading…

Próximas Passagens (próximas 24 horas)

TLE

AtualizadoSource: CelesTrak SupGP

Época: Sep 15, 2026, 02:37 UTC

1 58705C 24002A   26258.10951389 -.00060665  00000+0 -49917-3 0  2587
2 58705  53.1569  60.2449 0001016  79.9711  75.3561 15.69766025    18

Acompanhe STARLINK-11072 em tempo real com AllMySat

Download on the App Store